Вернуться в каталог

STARLINK-36334

АктивенСвязьVLEO
NORAD 67471·PAYLOAD·🇺🇸 United States

Запущен Jan 14, 2026 с Cape Canaveral Space Force Station

Loading…

Ближайшие Пролёты (ближайшие 24 часа)

TLE

СвежийSource: CelesTrak SupGP

Эпоха: Sep 15, 2026, 03:34 UTC

1 67471C 26008AC  26258.14909722 -.00049305  00000+0 -17861-2 0  2583
2 67471  43.0012 215.6439 0001342 271.1484  64.8755 15.27597234    15

Отслеживайте STARLINK-36334 в реальном времени с AllMySat

Download on the App Store